This demonstration page uses our WeatherBlox Daily Observations layout. Learn more.

Left ArrowRight Arrow

36.17497, -115.13722

Hourly Observations for October 25, 2019

Temp ( °F °C ) Dew Point ( °F °C ) Humidity (%) Winds ( mph kmh ) Pressure ( in mb ) Visibility ( mi km ) Precip ( " mm )
12:53 am 00:53 Clear 58 14.4 16 -8.9 19 19 N N/A 30.32 1027 10 16.0934 N/A
1:53 am 01:53 Clear 57 13.9 18 -7.8 22 22 N N/A 30.32 1027 10 16.0934 N/A
2:53 am 02:53 Clear 54 12.2 18 -7.8 24 24 W 5 7 30.33 1027 10 16.0934 N/A
3:53 am 03:53 Clear 56 13.3 17 -8.3 22 22 SW 5 7 30.32 1027 10 16.0934 N/A
4:53 am 04:53 Clear 56 13.3 16 -8.9 21 21 WSW 3 6 30.33 1027 10 16.0934 N/A
5:53 am 05:53 Clear 54 12.2 15 -9.4 21 21 SSW 5 7 30.34 1027 10 16.0934 N/A
6:53 am 06:53 Clear 53 11.7 17 -8.3 24 24 NW 7 11 30.34 1027 10 16.0934 N/A
7:53 am 07:53 Sunny 55 12.8 17 -8.3 22 22 W 5 7 30.35 1028 10 16.0934 N/A
8:53 am 08:53 Sunny 61 16.1 16 -8.9 17 17 N N/A 30.36 1028 10 16.0934 N/A
9:53 am 09:53 Sunny 64 17.8 13 -10.6 13 13 SW 5 7 30.35 1028 10 16.0934 N/A
10:53 am 10:53 Sunny 68 20 12 -11.1 11 11 ESE 7 11 30.32 1027 10 16.0934 N/A
11:53 am 11:53 Sunny 70 21.1 12 -11.1 10 10 N N/A 30.28 1025 10 16.0934 N/A
12:53 pm 12:53 Sunny 73 22.8 14 -10 10 10 SE 3 6 30.24 1024 10 16.0934 N/A
1:53 pm 13:53 Sunny 73 22.8 14 -10 10 10 N N/A 30.2 1023 10 16.0934 N/A
2:53 pm 14:53 Sunny 75 23.9 15 -9.4 10 10 VRB 3 6 30.16 1021 10 16.0934 N/A
3:53 pm 15:53 Sunny 76 24.4 16 -8.9 10 10 SSE 3 6 30.13 1020 10 16.0934 N/A
4:53 pm 16:53 Sunny 76 24.4 17 -8.3 11 11 N N/A 30.11 1020 10 16.0934 N/A
5:53 pm 17:53 Clear 75 23.9 17 -8.3 11 11 SSW 3 6 30.09 1019 10 16.0934 N/A
6:53 pm 18:53 Clear 71 21.7 21 -6.1 15 15 N N/A 30.09 1019 10 16.0934 N/A
7:53 pm 19:53 Clear 68 20 23 -5 18 18 W 6 9 30.09 1019 10 16.0934 N/A
8:53 pm 20:53 Clear 65 18.3 24 -4.4 21 21 W 5 7 30.08 1019 10 16.0934 N/A
9:53 pm 21:53 Clear 62 16.7 24 -4.4 23 23 WNW 7 11 30.07 1018 10 16.0934 N/A
10:53 pm 22:53 Clear 61 16.1 25 -3.9 25 25 NW 5 7 30.06 1018 10 16.0934 N/A
11:53 pm 23:53 Clear 59 15 26 -3.3 28 28 N N/A 30.04 1017 10 16.0934 N/A

Powered by AerisWeather